Regional Weather Roundup
Issued by NWS

Current Version | Previous Version | Text Only | Print | Product List | Glossary On
Versions: 1 2 3 4 5 6 7 8 9 10 11 12 13 14 15 16 17 18 19 20 21 22 23 24 25 26 27 28
000
ASUS45 KPSR 030910
RWRAZ

ARIZONA HOURLY REGIONAL WEATHER ROUNDUP
NATIONAL WEATHER SERVICE PHOENIX AZ
200 AM MST MON OCT 03 2022

NOTE: FAIR INDICATES FEW OR NO CLOUDS BELOW 12,000 FEET WITH NO
SIGNIFICANT WEATHER AND/OR OBSTRUCTIONS TO VISIBILITY.

AZZ001>003-036-031000-
NORTHWEST ARIZONA

CITY           SKY/WX    TMP DP  RH WIND       PRES   REMARKS
BULLHEAD CITY  CLEAR     86  57  37 S6        29.85S
KINGMAN        CLEAR     66  53  63 SE8       30.05R
$$

AZZ004>008-015-016-018-031000-
NORTH CENTRAL ARIZONA

CITY           SKY/WX    TMP DP  RH WIND       PRES   REMARKS
GRAND CANYON   CLOUDY    49  45  86 CALM      30.27S
WILLIAMS       PTCLDY    48  45  87 S8        30.27S
PRESCOTT       PTCLDY    57  52  83 S6        30.16S
FLAGSTAFF      PTCLDY    47  43  86 CALM      30.28F
PAYSON         PTCLDY    61  46  59 CALM      30.18S
PAGE           PTCLDY    59  56  89 CALM      30.17R
$$

AZZ009>014-017-031000-
NORTHEAST ARIZONA

CITY           SKY/WX    TMP DP  RH WIND       PRES   REMARKS
WINSLOW        CLOUDY    64  54  69 E9        30.19R
WINDOW ROCK    RAIN      53  48  83 E8        30.34R
SHOW LOW       CLEAR     55  48  76 SE8       30.26F
$$

AZZ540-542>544-546-548-031000-
GREATER PHOENIX AREA

CITY           SKY/WX    TMP DP  RH WIND       PRES   REMARKS
PHOENIX        PTCLDY    83  56  39 CALM      29.86S
BUCKEYE        CLEAR     75  59  57 W6        29.88S
LUKE AFB       PTCLDY    80  55  42 CALM      29.86S
DEER VALLEY    PTCLDY    80  52  37 NE6       29.90S
SCOTTSDALE     PTCLDY    80  54  40 CALM      29.90S
MESA-FALCON    PTCLDY    81  52  36 MISG      29.89S
MESA-GATEWAY   CLEAR     78  55  44 CALM      29.90S
$$

AZZ539-553-031000-
SOUTHWEST MARICOPA COUNTY AND PINAL COUNTY

CITY           SKY/WX    TMP DP  RH WIND       PRES   REMARKS
CASA GRANDE    CLEAR     76  54  46 W7        29.91S
GILA BEND      FAIR      79  62  55 S5        29.88R
$$

AZZ503-504-507>509-031000-
SOUTHEAST ARIZONA

CITY           SKY/WX    TMP DP  RH WIND       PRES   REMARKS
TUCSON         CLEAR     73  56  54 SE10      30.00S
DAVIS-MONTHAN  CLEAR     71  55  56 SE8       29.98S
NOGALES        CLEAR     59  54  83 E5        30.07F
SIERRA VISTA   CLEAR     62  51  66 CALM      30.13F
SAFFORD        CLEAR     71  52  50 SE9       30.06S
$$

AZZ532-031000-
SOUTHWEST ARIZONA

CITY           SKY/WX    TMP DP  RH WIND       PRES   REMARKS
YUMA           CLEAR     82  68  62 S3        29.83S
$$

CAZ041-043-047-048-061-525>527-560>570-031000-
SOUTHERN CALIFORNIA

CITY           SKY/WX    TMP DP  RH WIND       PRES   REMARKS
DOWNTOWN L.A.  CLEAR     64  59  83 CALM      29.97F
L.A. AIRPORT   PTCLDY    66  59  78 CALM      29.96F
SAN DIEGO      CLOUDY    69  62  78 W6        29.97S
BURBANK        CLEAR     65  58  78 CALM      29.97S
ONTARIO        CLEAR     64  58  80 CALM      29.97S
RIVERSIDE      CLEAR     64  58  80 W3        29.98S
PALM SPRINGS   CLEAR     81  58  45 NW13      29.87S
EL CENTRO NAS  PTCLDY    84  62  47 NW7       29.82S
IMPERIAL       PTCLDY    82  64  54 N5        29.81R
BLYTHE         CLEAR     83  64  52 S3        29.84S
NEEDLES        CLEAR     83  58  42 CALM      29.87R
$$

NVZ020-UTZ003-031000-
SOUTHERN NEVADA-UTAH

CITY           SKY/WX    TMP DP  RH WIND       PRES   REMARKS
LAS VEGAS      CLEAR     76  42  29 W5        29.94R
SALT LAKE CITY PTCLDY    55  40  56 S3        30.14R
$$

NMZ009-TXZ055-031000-
NEW MEXICO-WEST TEXAS

CITY           SKY/WX    TMP DP  RH WIND       PRES   REMARKS
ALBUQUERQUE    CLOUDY    62  48  60 NW7       30.27S
EL PASO        PTCLDY    67  45  45 NE3       30.15F
$$


........................KEY........................
SKY/WX - SKY CONDITION/WEATHER
TMP    - TEMPERATURE IN FAHRENHEIT
DP     - DEW POINT IN FAHRENHEIT
RH     - RELATIVE HUMIDITY IN PERCENT
WIND   - DIRECTION AND SPEED IN MILES PER HOUR (MPH)
VRB    - VARIABLE WIND DIRECTION
PRES   - MEAN SEA LEVEL PRESSURE IN INCHES OF MERCURY
         F - FALLING PRESSURE   R - RISING PRESSURE
         S - STEADY PRESSURE
VSB    - VISIBILITY IN MILES
HX     - HEAT INDEX IN FAHRENHEIT
WCI    - WIND CHILL INDEX IN FAHRENHEIT
TC     - TEMPERATURE IN CELSIUS WHICH IS ALSO KNOWN AS
         TEMPERATURE IN CENTIGRADE
AFB    - AIR FORCE BASE
         LUKE AFB IS LUKE AIR FORCE BASE
         DAVIS-MONTHAN IS DAVIS-MONTHAN AIR FORCE BASE
NAS    - NAVAL AIR STATION
         EL CENTRO NAS IS EL CENTRO NAVAL AIR STATION
N/A    - NOT AVAILABLE




USA.gov is the U.S. government's official web portal to all federal, state and local government web resources and services.